Home   Weather   Montréal   Past weeks
Flag for Canada

Past Weather in Montréal, Quebec, Canada — Yesterday and Last 2 Weeks

Now
41 °F

Clear.


Feels Like: 34 °F
Forecast: 54 / 41 °F
Wind: 13 mph from West

Location: Montreal - Pierre Elliot Trudeau International Aiport

Current Time: Oct 15, 2019 at 5:27:13 am

Latest Report: Oct 15, 2019 at 4:00 am


Visibility: 15 mi

Pressure: 30.05 "Hg

Humidity: 76%

Dew Point: 34 °F

Location of MontréalLocation

Past Weather in Montréal — Graph

°F

Montréal Temperature Yesterday

Maximum temperature yesterday: 57 °F (at 12:00 pm)
Minimum temperature yesterday: 45 °F (at 10:00 pm)
Average temperature yesterday: 51 °F

High & Low Weather Summary for the Past Weeks

 TemperatureHumidityPressure
High66 °F (Oct 11, 3:00 pm)100% (Oct 1, 7:00 am)30.50 "Hg (Oct 1, 7:00 am)
Low34 °F (Oct 5, 4:14 am)35% (Oct 11, 3:00 pm)29.72 "Hg (Oct 1, 7:27 pm)
Average51 °F74%30.13 "Hg
* Reported Sep 30 4:00 am — Oct 15 4:00 am, Montréal. Weather by CustomWeather, © 2019

Note: Actual official high and low records may vary slightly from our data, if they occured in-between our weather recording intervals... More about our weather records

Advertising

Montréal Weather History for the Previous 24 Hours

Scroll right to see more
 ConditionsComfort  
Time TempWeatherWind HumidityBarometerVisibility
4:00 am
Tue, Oct 15
41 °FClear.13 mph76%30.05 "Hg15 mi
3:00 am41 °FClear.9 mph81%30.04 "Hg15 mi
2:00 am43 °FClear.10 mph76%30.03 "Hg15 mi
1:00 am41 °FPassing clouds.8 mph81%30.02 "Hg15 mi
12:00 am45 °FClear.5 mph66%30.02 "Hg15 mi
11:00 pm
Mon, Oct 14
45 °FClear.2 mph66%30.01 "Hg15 mi
10:00 pm45 °FPassing clouds.12 mph71%30.00 "Hg15 mi
9:00 pm46 °FClear.12 mph62%29.99 "Hg15 mi
8:00 pm46 °FClear.9 mph66%29.97 "Hg15 mi
7:00 pm48 °FPassing clouds.9 mph76%29.96 "Hg15 mi
6:00 pm52 °FPassing clouds.8 mph67%29.93 "Hg15 mi
5:00 pm52 °FPartly sunny.9 mph72%29.90 "Hg30 mi
4:00 pm52 °FBroken clouds.8 mph72%29.89 "Hg30 mi
3:37 pm52 °FPartly sunny.8 mph72%29.89 "Hg15 mi
3:00 pm52 °FLight rain. Overcast.10 mph67%29.89 "Hg15 mi
2:16 pm54 °FLight rain. Mostly cloudy.12 mph67%29.88 "Hg30 mi
2:00 pm54 °FScattered showers. Mostly cloudy.12 mph63%29.88 "Hg30 mi
1:00 pm55 °FPartly sunny.10 mph63%29.88 "Hg30 mi
12:00 pm57 °FPartly sunny.15 mph59%29.88 "Hg30 mi
11:00 am55 °FPartly sunny.5 mph67%29.87 "Hg30 mi
10:00 am54 °FOvercast.3 mph67%29.88 "Hg30 mi
9:00 am52 °FOvercast.2 mph67%29.88 "Hg30 mi
8:00 am50 °FBroken clouds.5 mph71%29.88 "Hg30 mi
7:00 am48 °FPartly cloudy.5 mph71%29.87 "Hg30 mi
6:00 am48 °FPassing clouds.3 mph71%29.88 "Hg15 mi
5:00 am48 °FPassing clouds.5 mph71%29.87 "Hg15 mi
Weather by CustomWeather, © 2019

See weather overview